Regional Weather Roundup
Issued by NWS

Home | Current Version | Previous Version | Text Only | Print | Product List | Glossary Off
Versions: 1 2 3 4 5 6 7 8 9 10 11 12 13 14 15 16 17 18 19 20 21 22 23 24 25 26 27 28 29 30 31 32 33 34 35 36 37 38 39 40 41 42 43 44 45 46 47 48 49 50

000
ASUS44 KMEG 240200
RWRTN
TENNESSEE HOURLY STATE WEATHER ROUNDUP
NATIONAL WEATHER SERVICE MEMPHIS TN
900 PM CDT SAT JUL 23 2016

TNZ002-004-019-021-049-052-054-088>092-240300-
WEST TENNESSEE

CITY           SKY/WX    TMP DP  RH WIND       PRES   REMARKS
MEMPHIS INTL   CLOUDY    83  75  77 SW3       29.96R HX  90
NWS MEMPHIS      N/A     80 N/A N/A MISG        N/A
JACKSON        CLOUDY    79  77  94 S5        29.97R
DYERSBURG      CLOUDY    81  75  83 MISG      29.96R
PARIS          CLEAR     77  75  94 CALM      29.97S
$$

TNZ008-025-027-028-033-062-065-066-240300-
NORTH MIDDLE TENNESSEE

CITY           SKY/WX    TMP DP  RH WIND       PRES   REMARKS
NASHVILLE      MOCLDY    82  71  69 S9        29.99R
CLARKSVILLE    CLOUDY    79  75  87 CALM      29.97R
COOKEVILLE     CLEAR     75  72  88 CALM      30.01S
CROSSVILLE     PTCLDY    72  68  87 SW3       30.07R
$$

TNZ061-075-076-078-094-096-097-240300-
SOUTH MIDDLE TENNESSEE

CITY           SKY/WX    TMP DP  RH WIND       PRES   REMARKS
TULLAHOMA      CLEAR     72  72 100 S3        30.04R
WINCHESTER     CLEAR     75  72  88 CALM      30.02S
MCMINNVILLE    CLEAR     75  75 100 CALM      30.01F
COLUMBIA       CLEAR     81  81 100 SE3       29.99R HX  91
SHELBYVILLE    CLEAR     75  73  94 CALM      30.02R
$$

TNZ017-018-042-046-047-240300-
NORTHEAST TENNESSEE

CITY           SKY/WX    TMP DP  RH WIND       PRES   REMARKS
TRI CITIES     MOCLDY    78  68  71 S5        30.05R
$$

TNZ012-013-036-069-073-074-240300-
CENTRAL EAST TENNESSEE

CITY           SKY/WX    TMP DP  RH WIND       PRES   REMARKS
KNOXVILLE      PTCLDY    75  71  87 SW7       30.01S
OAK RIDGE      CLOUDY    77  71  82 VRB3      30.03R
GATLINBURG     CLEAR     75  66  73 SW3       30.02S
$$

TNZ083-085-099-240300-
SOUTHEAST TENNESSEE

CITY           SKY/WX    TMP DP  RH WIND       PRES   REMARKS
CHATTANOOGA    CLOUDY    82  70  66 E3        30.01S
$$

SKY/WX REPORTED AS FAIR MEANS FEW OR NO CLOUDS BELOW
12 THOUSAND FEET.





USA.gov is the U.S. government's official web portal to all federal, state and local government web resources and services.